Regional Weather Roundup
Issued by NWS

Home | Current Version | Previous Version | Text Only | Print | Product List | Glossary On
Versions: 1 2 3 4 5 6 7 8 9 10 11 12 13 14 15 16 17 18 19 20 21 22 23 24 25 26 27 28 29 30 31 32 33 34 35 36 37 38 39 40 41 42 43 44 45 46 47 48 49 50
000
ASUS44 KFWD 172203
RWRTX
NORTH TEXAS HOURLY WEATHER ROUNDUP
NATIONAL WEATHER SERVICE FORT WORTH TX
500 PM CDT THU AUG 17 2017

NOTE: "FAIR" INDICATES FEW OR NO CLOUDS BELOW 12,000 FEET WITH NO
SIGNIFICANT WEATHER AND/OR OBSTRUCTIONS TO VISIBILITY.

TXZ118-119-172300-
DALLAS/FORT WORTH METROPLEX

CITY           SKY/WX    TMP DP  RH WIND       PRES   REMARKS
DFW AIRPORT    CLOUDY    87  66  49 S7        29.94S
DALLAS LOVE    CLOUDY    89  73  59 S5        29.94F HX  97
FTW MEACHAM    TSTM      79  68  69 S10       29.92F
DAL-EXECUTIVE  LGT RAIN  87  74  64 E8        29.94F HX  95
FTW-ALLIANCE   CLOUDY    89  70  53 S8        29.94S HX  94
FTW-NAS-JRB    CLOUDY    81  63  54 S13       29.94  THUNDER
FTW-SPINKS     TSTM      77  66  69 CALM      29.97S
ARLINGTON      CLOUDY    83  72  69 CALM      29.95R
GRAND PRAIRIE  SUNNY     84  64  51 CALM      29.97S
ADDISON        MOSUNNY   88  72  58 S8        29.96F HX  94
MESQUITE       MOSUNNY   86  77  74 SE5       29.95F HX  97
LANCASTER      MOSUNNY   88  75  65 CALM      29.95F HX  98
$$

TXZ091>094-102>105-117-120-121-131>134-172300-
NORTH CENTRAL TEXAS

CITY           SKY/WX    TMP DP  RH WIND       PRES   REMARKS
SHRMAN/DENISON MOSUNNY   87  77  71 E7        29.98F HX  98
GAINESVILLE    MOSUNNY   89  76  64 E8        29.98F HX 100
BOWIE          SUNNY     92  73  54 E3        29.96F HX 100
BRIDGEPORT     CLOUDY    95  70  43 E6        29.96S HX 100
DECATUR        MOSUNNY   94  71  47 CALM      29.97S HX 100
MCKINNEY       PTSUNNY   86  80  82 SE6       29.96F HX 101
BONHAM         PTSUNNY   84  75  74 N3        29.98F HX  92
ROCKWALL       CLOUDY    85  78  80 S5        29.97F HX  97
TERRELL        CLOUDY    87  76  69 S8        29.96F HX  97
WAXAHACHIE     CLOUDY    94  73  49 SE6       29.95F HX 102
CLEBURNE       CLOUDY    90  75  62 S6        29.98R HX 100
GRANBURY       CLOUDY    77  69  78 SW12G17   29.99R
$$

TXZ083>090-098>101-113>116-127>130-139>142-154-155-172300-
WESTERN NORTH TEXAS

CITY           SKY/WX    TMP DP  RH WIND       PRES   REMARKS
WICHITA FALLS  MOSUNNY   90  71  53 NE10      29.96F HX  96
WF-KICKAPOO    SUNNY     93  74  52 NE9       29.98F HX 103
VERNON         SUNNY     92  62  35 E8        29.98F HX  92
ABILENE        CLOUDY    81  66  60 S10       30.01F
ABILENE-DYESS  PTSUNNY   85  67  55 SE14      29.98F
BRECKENRIDGE   CLOUDY    81  69  66 SW15      29.98S
CISCO          CLOUDY    75  68  78 SW12      30.01S
EASTLAND       CLOUDY    80  68  67 SW5       29.99F
RANGER         CLOUDY    82  67  61 NW3       30.01S
MINERAL WELLS  CLOUDY    88  64  44 SW6       29.94S
STEPHENVILLE   CLOUDY    75  68  79 SE22G31   30.05R VSB 1/2
COMANCHE       CLOUDY    77  71  81 S18G24    30.03R
BROWNWOOD      LGT RAIN  73  72  94 W14       30.07R
COLEMAN        TSTM      73  68  84 S17G25    30.06R
$$

TXZ143>147-156>162-174-175-172300-
CENTRAL TEXAS

CITY           SKY/WX    TMP DP  RH WIND       PRES   REMARKS
WACO           MOSUNNY   96  73  47 S8        29.92F HX 105
WACO-TSTC      MOSUNNY   99  70  39 S9        29.92  HX 105
WACO-MCGREGOR  CLOUDY    97  71  42 S12       29.93F HX 104
HILLSBORO      SUNNY     93  76  57 E12       29.95S HX 104
CORSICANA      CLOUDY    88  78  72 SE5       29.96F HX 101
MEXIA          CLOUDY    82  79  90 NE3       29.94F HX  91
HEARNE         MOSUNNY   97  69  41 S8        29.94F HX 102
CAMERON        SUNNY     98  71  41 S10       29.94S HX 105
TEMPLE         SUNNY     97  70  41 S10G20    29.94F HX 103
KILLEEN        MOSUNNY   96  69  41 S12       29.93F HX 102
KILLEEN-SKYLRK SUNNY     98  73  44 SE9       29.94F HX 108
FORT HOOD      SUNNY     96  70  41 S7        29.91F HX 102
HAMILTON       MOSUNNY   87  70  57 W8G20     29.98F HX  92
LAMPASAS       MOSUNNY   96  72  45 S9        29.95F THUNDER HX 104
$$

TXZ095>097-106>112-122>126-135>138-148>153-164>167-172300-
EAST TEXAS

CITY           SKY/WX    TMP DP  RH WIND       PRES   REMARKS
PARIS          CLOUDY    84  76  76 SW5       29.99F HX  93
SULPHUR SPRNGS MOSUNNY   86  76  71 SW5       29.99F HX  96
MOUNT PLEASANT PTSUNNY   85  73  67 CALM      29.99F HX  91
GILMER         MOSUNNY   83  73  72 S6        29.98F
MINEOLA        PTSUNNY   84  77  79 SE5       29.97F HX  94
TYLER          CLOUDY    85  76  74 SE12      29.96F HX  94
LONGVIEW       SUNNY     87  75  67 S6        29.96F HX  96
MARSHALL         N/A     85  69  59 SW7       30.00F
ATHENS         CLOUDY    84  75  74 SE8       29.95F HX  92
PALESTINE      CLOUDY    90  76  63 SE13      29.97F HX 101
JACKSONVILLE   MOSUNNY   87  76  71 SE3       30.01F HX  97
HENDERSON      MOSUNNY   88  75  65 S7        29.98F HX  97
CENTER         CLOUDY    90  76  65 CALM      30.00F HX 101
NACOGDOCHES    PTSUNNY   86  76  71 S5        29.98F HX  96
LUFKIN         MOSUNNY   91  74  57 S7        29.98F HX 100
$$

SUPPLEMENTAL OBSERVATIONS (NWS FORT WORTH AREA)

CITY           SKY/WX    TMP DP  RH WIND       PRES   REMARKS
$$

SUPPLEMENTAL OBSERVATIONS (NWS NORMAN AREA)

CITY           SKY/WX    TMP DP  RH WIND       PRES   REMARKS
GOODLETT         N/A     92  59  32 E8        29.99F HX  91
ODELL            N/A     91  69  48 E10       29.99F HX  95
CROWELL          N/A     94  66  40 E10       29.99F HX  97
KNOX CITY        N/A     96  65  35 E6G13     29.97F HX  98
SEYMOUR          N/A     95  67  39 NE6       29.97F HX  98
$$

SUPPLEMENTAL OBSERVATIONS (NWS SAN ANGELO AREA)

CITY           SKY/WX    TMP DP  RH WIND       PRES   REMARKS
HASKELL          N/A     95  61  32 N5        29.97F HX  95
THROCKMORTON     N/A     95  71  46 N5        29.97S HX 103
STAMFORD         N/A     88  71  55 S17       29.99S HX  94
CLYDE            N/A     77  68  74 S10       30.04F
$$

SUPPLEMENTAL OBSERVATIONS (NWS SHREVEPORT AREA)

CITY           SKY/WX    TMP DP  RH WIND       PRES   REMARKS
$$

SUPPLEMENTAL OBSERVATIONS ARE A COLLECTION OF AUTOMATED INSTRUMENTS
THAT ARE MAINTAINED BY A VARIETY OF FEDERAL AND STATE AGENCIES.
CERTAIN ELEMENTS...SUCH AS HUMIDITY VALUES AND SUSTAINED WIND
SPEEDS...MAY BE APPROXIMATED.




USA.gov is the U.S. government's official web portal to all federal, state and local government web resources and services.